Regional Weather Roundup
Issued by NWS Northern Indiana

Home | Current Version | Previous Version | Text Only | Print | Product List | Glossary Off
Versions: 1 2 3 4 5 6 7 8 9 10 11 12 13 14 15 16 17 18 19 20 21 22 23 24 25 26 27 28 29 30 31 32 33 34 35 36 37 38 39 40 41 42 43 44 45 46 47 48 49 50

000
ASUS43 KIWX 271400
RWRIWX

KIWX WEATHER ROUNDUP
NATIONAL WEATHER SERVICE NORTHERN INDIANA
900 AM EST SAT DEC 27 2014

NOTE: "FAIR" INDICATES FEW OR NO CLOUDS BELOW 12,000 FEET WITH NO
SIGNIFICANT WEATHER AND/OR OBSTRUCTIONS TO VISIBILITY.

* THESE STATIONS ARE NOT UNDER NWS QUALITY CONTROL. THEY ALSO MAY NOT
  REPORT WEATHER SUCH AS PRECIPITATION OR FOG.

INZ001>027-271500-
NORTHERN INDIANA

CITY           SKY/WX    TMP DP  RH WIND       PRES   REMARKS
GARY*          CLOUDY    48  43  81 SW17        N/A
SOUTH BEND     CLOUDY    45  44  97 S12       30.03S FOG
GOSHEN         CLOUDY    44  43  96 S15       30.05R FOG
ANGOLA*        CLOUDY    43  43 100 SW12      30.06R
FORT WAYNE     CLOUDY    43  41  93 S12       30.10S

$$
INZ028>050-271500-
CENTRAL INDIANA

CITY           SKY/WX    TMP DP  RH WIND       PRES   REMARKS
LAFAYETTE      CLOUDY    44  43  96 SW8       30.09R
KOKOMO*        CLOUDY    45  41  87 S14       30.09S
MUNCIE*        CLOUDY    44  41  89 S13       30.12R
INDIANAPOLIS   CLOUDY    42  40  92 S10       30.13R

$$
MIZ043>046-050>051-056>058-064>065-071>073-077>080-271500-
SOUTHWEST LOWER MICHIGAN

CITY           SKY/WX    TMP DP  RH WIND       PRES   REMARKS
BATTLE CREEK   CLOUDY    45  42  89 SW12G22   30.02S
BENTON HARBOR  CLOUDY    45  44  97 S10G18    30.00S FOG
COLDWATER*     CLOUDY    44  42  94 S9G17     30.04S
HILLSDALE*     CLOUDY    43  43 100 SW10G20   30.05S
HOLLAND        CLOUDY    47  44  90 S17G26    29.98F
GRAND RAPIDS   CLOUDY    45  42  89 S14       29.99R
KALAMAZOO      CLOUDY    45  42  89 S15       30.03R FOG
STURGIS*       CLOUDY    43  43 100 S15       30.04R FOG
THREE RIVERS*  CLOUDY    44  42  95 S10       30.04R FOG

$$
OHZ001>008-015>018-024>025-271500-
NORTHWEST OHIO

CITY           SKY/WX    TMP DP  RH WIND       PRES   REMARKS
DEFIANCE       LGT RAIN  44  40  85 SW12      30.11R FOG
FINDLAY        CLOUDY    46  36  68 S13       30.13R
TOLEDO EXPRESS CLOUDY    45  37  73 S13G20    30.09F
TOLEDO METCALF CLOUDY    46  37  71 S14       30.11F
LIMA           CLOUDY    47  36  65 S12       30.13S

$$
AND FOR LAKE MICHIGAN COASTAL AND OPEN LAKE BUOY OBSERVATIONS

STATION/POSITION TEMP    WIND        PRES    VSBY  WAVE
                 AIR SEA DIR/SP/G                  HT/PER
                 (F)     (DEG/KT/KT) (MB)    (MI)  (FT/S)
CALUMET HARBOR    46     190/ 13/ 20 1014.4S
MICHIGAN CITY     45     170/ 14/ 18   N/A
SAINT JOSEPH      46     180/  6/ 15 1016.3R

$$
&&


USA.gov is the U.S. government's official web portal to all federal, state and local government web resources and services.